When you browse on this site, cookies collect data to enhance your experience and personalize the content and advertising you see.
Visit our Privacy Policy to learn more. By continuing to use the site, you agree to this use of cookies and data.
  • In Portugal
  • List of Countries
  • For 7 days
  • Water Temperature
  • Satellite Maps
  • Weather Map
  • Weather Widgets
  • user-avatar
    Login

    Hourly Weather Laszkar Gah

    Today, 21 July, Sunday

    Time Temperature Precipitation Wind Pressure Humidity
    00:00 +34°C° 0 mm 2 mps 685 mmHg 10%
    01:00 +34°C° 0 mm 2 mps 685 mmHg 11%
    02:00 +33°C° 0 mm 3 mps 685 mmHg 15%
    03:00 +31°C° 0 mm 3 mps 685 mmHg 19%
    04:00 +30°C° 0 mm 3 mps 685 mmHg 25%
    05:00 +31°C° 0 mm 3 mps 686 mmHg 25%
    06:00 +33°C° 0 mm 4 mps 687 mmHg 25%
    07:00 +35°C° 0 mm 4 mps 687 mmHg 25%
    08:00 +37°C° 0 mm 3 mps 687 mmHg 22%
    09:00 +39°C° 0 mm 3 mps 687 mmHg 19%
    10:00 +42°C° 0 mm 3 mps 687 mmHg 16%
    11:00 +42°C° 0 mm 2 mps 687 mmHg 14%
    12:00 +45°C° 0 mm 2 mps 687 mmHg 13%
    13:00 +46°C° 0 mm 2 mps 687 mmHg 11%
    14:00 +47°C° 0 mm 2 mps 686 mmHg 10%
    15:00 +47°C° 0 mm 2 mps 685 mmHg 9%
    16:00 +47°C° 0 mm 2 mps 684 mmHg 8%
    17:00 +46°C° 0 mm 2 mps 684 mmHg 9%
    18:00 +44°C° 0 mm 3 mps 684 mmHg 10%
    19:00 +42°C° 0 mm 4 mps 684 mmHg 11%
    20:00 +41°C° 0 mm 4 mps 684 mmHg 12%
    21:00 +38°C° 0 mm 4 mps 685 mmHg 13%
    22:00 +37°C° 0 mm 3 mps 685 mmHg 14%
    23:00 +35°C° 0 mm 4 mps 685 mmHg 21%

    Tomorrow, 22 July, Monday

    Time Temperature Precipitation Wind Pressure Humidity
    00:00 +34°C° 0 mm 4 mps 685 mmHg 29%
    01:00 +33°C° 0 mm 5 mps 684 mmHg 36%
    02:00 +32°C° 0 mm 4 mps 685 mmHg 38%
    03:00 +30°C° 0 mm 4 mps 685 mmHg 39%
    04:00 +30°C° 0 mm 4 mps 685 mmHg 41%
    05:00 +32°C° 0 mm 5 mps 686 mmHg 37%
    06:00 +34°C° 0 mm 6 mps 686 mmHg 34%
    07:00 +35°C° 0 mm 6 mps 687 mmHg 30%
    08:00 +38°C° 0 mm 6 mps 687 mmHg 26%
    09:00 +41°C° 0 mm 6 mps 687 mmHg 22%
    10:00 +43°C° 0 mm 5 mps 687 mmHg 18%
    11:00 +44°C° 0 mm 4 mps 687 mmHg 16%
    12:00 +45°C° 0 mm 3 mps 686 mmHg 13%
    13:00 +47°C° 0 mm 2 mps 686 mmHg 11%
    14:00 +47°C° 0 mm 2 mps 685 mmHg 10%
    15:00 +47°C° 0 mm 2 mps 685 mmHg 10%
    16:00 +47°C° 0 mm 1 mps 684 mmHg 9%
    17:00 +46°C° 0 mm 2 mps 684 mmHg 10%
    18:00 +44°C° 0 mm 3 mps 683 mmHg 11%
    19:00 +40°C° 0 mm 3 mps 683 mmHg 12%
    20:00 +39°C° 0 mm 3 mps 683 mmHg 12%
    21:00 +38°C° 0 mm 3 mps 684 mmHg 13%
    22:00 +37°C° 0 mm 2 mps 684 mmHg 14%
    23:00 +35°C° 0 mm 2 mps 684 mmHg 16%

    Day after tomorrow, 23 July, Tuesday

    Time Temperature Precipitation Wind Pressure Humidity
    00:00 +34°C° 0 mm 2 mps 684 mmHg 18%
    01:00 +32°C° 0 mm 2 mps 684 mmHg 21%
    02:00 +31°C° 0 mm 2 mps 684 mmHg 22%
    03:00 +31°C° 0 mm 2 mps 684 mmHg 24%
    04:00 +30°C° 0 mm 3 mps 684 mmHg 26%
    05:00 +33°C° 0 mm 3 mps 685 mmHg 26%
    06:00 +34°C° 0 mm 4 mps 685 mmHg 27%
    07:00 +35°C° 0 mm 4 mps 686 mmHg 27%
    08:00 +39°C° 0 mm 5 mps 687 mmHg 23%
    09:00 +41°C° 0 mm 5 mps 687 mmHg 19%
    10:00 +43°C° 0 mm 5 mps 687 mmHg 16%
    11:00 +45°C° 0 mm 5 mps 687 mmHg 13%
    12:00 +45°C° 0 mm 4 mps 687 mmHg 11%
    13:00 +48°C° 0 mm 4 mps 686 mmHg 8%
    14:00 +48°C° 0 mm 4 mps 686 mmHg 8%
    15:00 +47°C° 0 mm 3 mps 685 mmHg 7%
    16:00 +48°C° 0 mm 3 mps 685 mmHg 7%
    17:00 +46°C° 0 mm 3 mps 684 mmHg 7%
    18:00 +43°C° 0 mm 3 mps 684 mmHg 8%
    19:00 +40°C° 0 mm 3 mps 684 mmHg 9%
    20:00 +40°C° 0 mm 4 mps 684 mmHg 9%
    21:00 +38°C° 0 mm 4 mps 684 mmHg 9%
    22:00 +37°C° 0 mm 5 mps 685 mmHg 9%
    23:00 +35°C° 0 mm 4 mps 684 mmHg 10%

    24 July, Wednesday

    Time Temperature Precipitation Wind Pressure Humidity
    00:00 +34°C° 0 mm 2 mps 684 mmHg 11%
    01:00 +31°C° 0 mm 1 mps 684 mmHg 12%
    02:00 +31°C° 0 mm 2 mps 684 mmHg 12%
    03:00 +31°C° 0 mm 3 mps 684 mmHg 13%
    04:00 +32°C° 0 mm 4 mps 684 mmHg 13%
    05:00 +33°C° 0 mm 4 mps 684 mmHg 12%
    06:00 +33°C° 0 mm 4 mps 685 mmHg 12%
    07:00 +34°C° 0 mm 4 mps 685 mmHg 11%
    08:00 +37°C° 0 mm 3 mps 686 mmHg 10%
    09:00 +39°C° 0 mm 3 mps 686 mmHg 8%
    10:00 +42°C° 0 mm 3 mps 686 mmHg 7%
    11:00 +44°C° 0 mm 4 mps 686 mmHg 6%
    12:00 +47°C° 0 mm 4 mps 686 mmHg 5%
    13:00 +49°C° 0 mm 5 mps 685 mmHg 4%
    14:00 +49°C° 0 mm 5 mps 685 mmHg 4%
    15:00 +49°C° 0 mm 6 mps 684 mmHg 4%
    16:00 +49°C° 0 mm 6 mps 684 mmHg 4%
    17:00 +47°C° 0 mm 5 mps 684 mmHg 4%
    18:00 +43°C° 0 mm 5 mps 683 mmHg 5%
    19:00 +41°C° 0 mm 5 mps 683 mmHg 6%
    20:00 +38°C° 0 mm 4 mps 683 mmHg 6%
    21:00 +37°C° 0 mm 3 mps 683 mmHg 7%
    22:00 +35°C° 0 mm 3 mps 683 mmHg 8%
    23:00 +34°C° 0 mm 3 mps 682 mmHg 9%

    25 July, Thursday

    Time Temperature Precipitation Wind Pressure Humidity
    00:00 +32°C° 0 mm 2 mps 682 mmHg 10%
    01:00 +31°C° 0 mm 2 mps 682 mmHg 10%
    02:00 +30°C° 0 mm 2 mps 682 mmHg 11%
    03:00 +29°C° 0 mm 2 mps 682 mmHg 12%
    04:00 +29°C° 0 mm 2 mps 682 mmHg 13%
    05:00 +30°C° 0 mm 2 mps 683 mmHg 12%
    06:00 +33°C° 0 mm 3 mps 683 mmHg 11%
    07:00 +35°C° 0 mm 3 mps 684 mmHg 10%
    08:00 +37°C° 0 mm 3 mps 684 mmHg 9%
    09:00 +39°C° 0 mm 3 mps 685 mmHg 9%
    10:00 +42°C° 0 mm 4 mps 685 mmHg 8%
    11:00 +44°C° 0 mm 3 mps 685 mmHg 7%
    12:00 +45°C° 0 mm 3 mps 684 mmHg 6%
    13:00 +47°C° 0 mm 3 mps 684 mmHg 6%
    14:00 +48°C° 0 mm 3 mps 683 mmHg 5%
    15:00 +48°C° 0 mm 3 mps 683 mmHg 5%
    16:00 +48°C° 0 mm 3 mps 682 mmHg 5%
    17:00 +46°C° 0 mm 3 mps 682 mmHg 6%
    18:00 +43°C° 0 mm 3 mps 682 mmHg 7%
    19:00 +40°C° 0 mm 3 mps 681 mmHg 8%
    20:00 +38°C° 0 mm 3 mps 681 mmHg 8%
    21:00 +37°C° 0 mm 3 mps 681 mmHg 9%
    22:00 +36°C° 0 mm 3 mps 681 mmHg 10%
    23:00 +35°C° 0 mm 3 mps 681 mmHg 11%

    26 July, Friday

    Time Temperature Precipitation Wind Pressure Humidity
    00:00 +34°C° 0 mm 3 mps 681 mmHg 12%
    01:00 +33°C° 0 mm 3 mps 681 mmHg 13%
    02:00 +31°C° 0 mm 3 mps 681 mmHg 14%
    03:00 +30°C° 0 mm 3 mps 681 mmHg 15%
    04:00 +29°C° 0 mm 3 mps 681 mmHg 16%
    05:00 +30°C° 0 mm 3 mps 682 mmHg 15%
    06:00 +33°C° 0 mm 3 mps 683 mmHg 14%
    07:00 +35°C° 0 mm 3 mps 683 mmHg 14%
    08:00 +37°C° 0 mm 4 mps 684 mmHg 13%
    09:00 +40°C° 0 mm 4 mps 684 mmHg 12%
    10:00 +42°C° 0 mm 4 mps 684 mmHg 11%
    11:00 +44°C° 0 mm 4 mps 684 mmHg 10%
    12:00 +46°C° 0 mm 5 mps 683 mmHg 8%
    13:00 +48°C° 0 mm 5 mps 683 mmHg 7%
    14:00 +48°C° 0 mm 5 mps 683 mmHg 7%
    15:00 +48°C° 0 mm 5 mps 682 mmHg 6%
    16:00 +48°C° 0 mm 6 mps 682 mmHg 6%
    17:00 +46°C° 0 mm 5 mps 682 mmHg 7%
    18:00 +42°C° 0 mm 4 mps 681 mmHg 8%
    19:00 +39°C° 0 mm 3 mps 681 mmHg 9%
    20:00 +37°C° 0 mm 3 mps 681 mmHg 11%
    21:00 +35°C° 0 mm 2 mps 681 mmHg 12%
    22:00 +32°C° 0 mm 1 mps 681 mmHg 13%
    23:00 +32°C° 0 mm 1 mps 681 mmHg 13%
    Show more